COSMOS 2529 (757)

Last updated on Jan. 27, 2020, 4:39 a.m. UTC

1 43687U 18086A   20026.24798432  .00000025  00000-0  00000+0 0  9996
2 43687  64.6163 272.0932 0009554 279.3135 204.4705  2.13102092  9555
UTC
Height (km)
Latitude
Longitude
Inclination
Orbital Period
UTC large
Height (km)
Speed (km/s)
/
Latitude / Longitude
Inclination (degrees)
Orbital Period (minutes)
Azimuth
Elevation
Range (km)
Doppler Factor
iOS Compass Heading
iOS Angle

Next 30 passes for location: Hong Kong

Rise time Rise Azimuth (degrees) Set time Set Azimuth (degrees) Duration Max altitude (degrees)

No matching passes for this satellites